Location: Unspecified
(46.5411°N, 0.0000°E)
Time: 18:28:54
(UTC+00:00)

ISS - Visible Passes

Search period start: 21 May 2019 00:00
Search period end: 31 May 2019 00:00
Orbit: 407 x 410 km, 51.6° (Epoch: 22 May)

Date Brightness Start Highest point End Pass type
(mag) Time Alt. Az. Time Alt. Az. Time Alt. Az.
21 May -1.4 01:36:27 10° WNW 01:37:06 15° WNW 01:37:06 15° WNW visible
21 May -2.6 21:31:46 10° W 21:34:56 43° NNW 21:38:08 10° ENE visible
21 May -2.0 23:08:57 10° WNW 23:12:00 33° N 23:14:16 15° ENE visible
22 May -1.8 00:45:35 10° WNW 00:46:56 22° WNW 00:46:56 22° WNW visible
22 May -3.1 20:40:43 10° WSW 20:43:58 58° NNW 20:47:16 10° ENE visible
22 May -2.0 22:17:56 10° WNW 22:20:58 32° N 22:23:59 10° ENE visible
22 May -2.7 23:54:43 10° WNW 23:57:18 43° NNW 23:57:18 43° NNW visible
23 May -2.1 21:26:51 10° WNW 21:29:55 34° N 21:32:59 10° ENE visible
23 May -2.5 23:03:49 10° WNW 23:06:59 40° NNE 23:07:50 33° NE visible
24 May -1.0 00:40:24 10° WNW 00:40:33 11° WNW 00:40:33 11° WNW visible
24 May -2.3 20:35:45 10° W 20:38:53 39° NNW 20:42:01 10° ENE visible
24 May -2.2 22:12:52 10° WNW 22:15:57 34° N 22:18:26 14° ENE visible
24 May -2.1 23:49:28 10° WNW 23:51:09 27° WNW 23:51:09 27° WNW visible
25 May -2.0 21:21:51 10° WNW 21:24:53 32° N 21:27:55 10° ENE visible
25 May -3.4 22:58:33 10° WNW 23:01:47 62° NNE 23:01:47 62° NNE visible
26 May -2.0 20:30:45 10° WNW 20:33:48 32° N 20:36:50 10° ENE visible
26 May -2.8 22:07:38 10° WNW 22:10:50 45° NNE 22:12:27 24° ENE visible
26 May -1.4 23:44:16 10° WNW 23:45:09 17° W 23:45:09 17° W visible
27 May -2.4 21:16:40 10° WNW 21:19:47 37° N 21:22:53 10° E visible
27 May -3.2 22:53:14 10° WNW 22:55:50 50° W 22:55:50 50° W visible
28 May -2.2 20:25:39 10° WNW 20:28:41 33° N 20:31:44 10° ENE visible
28 May -3.7 22:02:16 10° WNW 22:05:35 75° NNE 22:06:32 43° E visible
29 May -3.1 21:11:19 10° WNW 21:14:34 53° NNE 21:17:15 14° E visible
29 May -2.2 22:48:02 10° WNW 22:49:58 26° WSW 22:49:58 26° WSW visible
30 May -2.6 20:20:20 10° WNW 20:23:30 40° NNE 20:26:39 10° E visible
30 May -3.6 21:56:56 10° WNW 22:00:10 55° SSW 22:00:43 47° S visible
